TUBIN
1 48900U 21059X   25268.30775609  .00110839  00000-0  83356-3 0  9998
2 48900  97.6769  87.1601 0002783 192.7858 167.3334 15.72213646236892
LEDSAT
1 49069U 21073D   25268.15578223  .00440017  00000-0  16159-2 0  9997
2 49069  97.3740 355.6373 0002757 328.4122  31.6983 15.87225782228318
CUTE
1 49263U 21088D   25268.28292067  .00031133  00000-0  51431-3 0  9990
2 49263  97.4415 347.9923 0006324 185.1751 174.9437 15.52173067221104
TeikyoSat 4
1 49396U 21102B   25268.12368773  .00004561  00000-0  29910-3 0  9997
2 49396  97.4004 302.6493 0013750 121.4084 238.8491 15.08086539212757
Z-Sat
1 49399U 21102E   25268.15922895  .00007870  00000-0  41918-3 0  9992
2 49399  97.3701 306.4694 0019556  91.3353 269.0121 15.15309259213260
KOSEN 1
1 49402U 21102H   25268.04192744  .00012781  00000-0  56435-3 0  9994
2 49402  97.3596 310.6141 0016894  66.3774 293.9234 15.21744685213626
HO-113
1 50466U 21131B   25268.32753116  .00001283  00000-0  41348-3 0  9997
2 50466  98.5080 357.1461 0004590 159.7717 200.3655 14.40941143196968
SNUGLITE 2
1 52899U 22065F   25268.32241223  .00002930  00000-0  57449-3 0  9996
2 52899  98.1849  49.3555 0008474 130.6428 229.5512 14.63481978172245
UmKA 1 (RS40S)
1 57172U 23091G   25268.26822309  .00010631  00000-0  54644-3 0  9999
2 57172  97.5462 323.1060 0012862 327.1798  32.8635 15.16584547123793
CubeBel-2 (EU11S)
1 57175U 23091K   25268.25565417  .00017336  00000-0  77502-3 0  9992
2 57175  97.5459 324.9494 0010560 332.9435  27.1249 15.21337329123919
ENSO
1 58470U 23185J   25265.87349204  .00212868  00000-0  15756-2 0  9993
2 58470  97.3609 345.3295 0002510  57.5685 302.5821 15.72293598101470
SONATE-2
1 59112U 24043Q   25267.36813307  .00035295  00000-0  89510-3 0  9994
2 59112  97.5273  41.0340 0010859  93.3457 266.9031 15.39553525 86744
MO-122
1 60209U 24125G   25268.13030981  .00037532  00000-0  92875-3 0  9993
2 60209  97.2653 118.7536 0018624 108.1879 252.1397 15.40166181 68485
GRBBeta
1 60237U 24128C   25267.77764657  .00009226  00000-0  66275-3 0  9994
2 60237  61.9916  65.5474 0056795  80.4902 280.2602 15.03589382 66318
Curium One
1 60242U 24128H   25267.15171371  .00016734  00000-0  10903-2 0  9995
2 60242  61.9808  64.2925 0056603  77.0552 283.6854 15.06762571 66280
ROBUSTA-3A
1 60243U 24128J   25267.78727154  .00014535  00000-0  96398-3 0  9991
2 60243  61.9885  63.2702 0056247  74.7187 286.0114 15.06217281 66368
CatSat
1 60246U 24125J   25267.57314607  .00036831  00000-0  10955-2 0  9990
2 60246  97.2471 116.1447 0040972  73.3240 287.2495 15.33794243 66364
HYPERVIEW-1G (RS66S)
1 61772U 24199AP  25268.31931483  .00042828  00000-0  10586-2 0  9999
2 61772  97.3339 137.1777 0012955 155.9441 204.2413 15.40266723 93513
AO-123
1 61781U 24199AY  25268.30050881  .00013160  00000-0  45602-3 0  9997
2 61781  97.3363 134.6854 0015588 168.6262 191.5334 15.29843500 93347
ZIMSAT 2
1 61783U 24199BA  25268.27083450  .00094932  00000-0  16677-2 0  9998
2 61783  97.3285 138.8418 0012182 146.2583 213.9447 15.50094720 96779
HADES-R (SO-124)
1 62690U 25009CK  25268.19053234  .00097226  00000-0  25548-2 0  9991
2 62690  97.4002 349.1185 0001938 100.8917 259.2546 15.38224693 38631
HYDRA-T
1 62692U 25009CM  25268.15095695  .00099302  00000-0  25666-2 0  9994
2 62692  97.4008 349.1715 0001624  94.0653 266.0778 15.38726140 38638
JINJUSat 1B
1 63210U 25052A   25267.18845402  .00023959  00000-0  10166-2 0  9994
2 63210  97.4250 160.0344 0002696 343.6916  16.4233 15.23093421 29464
NUSHSAT 1
1 63211U 25052B   25268.27528484  .00027216  00000-0  11342-2 0  9991
2 63211  97.4234 161.1524 0002721 347.9683  12.1488 15.23677150 29637
TEVEL2-4
1 63213U 25052D   25268.24800696  .00025523  00000-0  10778-2 0  9999
2 63213  97.4156 160.8274 0002922  17.0933 343.0402 15.23241981 29626
TEVEL2-5
1 63214U 25052E   25268.25058633  .00026022  00000-0  11000-2 0  9991
2 63214  97.4155 160.8246 0002905  16.3076 343.8253 15.23204319 29622
TEVEL2-6
1 63215U 25052F   25268.25556461  .00025652  00000-0  10858-2 0  9992
2 63215  97.4153 160.8210 0002985  15.6776 344.4553 15.23160736 29623
TEVEL2-1
1 63217U 25052H   25266.18058536  .00027481  00000-0  11752-2 0  9990
2 63217  97.4135 158.6458 0004046  29.1921 330.9541 15.22795081 29304
TEVEL2-3
1 63218U 25052J   25266.96911112  .00027604  00000-0  11786-2 0  9999
2 63218  97.4136 159.4267 0003975  28.7525 331.3930 15.22846330 29422
TEVEL2-2
1 63219U 25052K   25268.21828301  .00023998  00000-0  10241-2 0  9994
2 63219  97.4129 160.6567 0003712  25.2479 334.8939 15.22894236 29617
TEVEL2-9
1 63237U 25052AD  25267.12260717  .00026331  00000-0  11682-2 0  9998
2 63237  97.4197 159.3829 0008225  19.5986 340.5565 15.21525963 29426
TEVEL2-7
1 63238U 25052AE  25268.24819645  .00023771  00000-0  10566-2 0  9998
2 63238  97.4196 160.4794 0008195  16.3203 343.8295 15.21483740 29593
TEVEL2-8
1 63239U 25052AF  25267.46316501  .00023579  00000-0  10502-2 0  9991
2 63239  97.4196 159.6943 0008319  18.8000 341.3542 15.21415764 29476
HYDRA-W
1 63490U 25052BL  25267.43857252  .00062476  00000-0  21668-2 0  9994
2 63490  97.4140 160.8072 0010494  14.5853 345.5688 15.29522964 29552
HADES-ICM (SO-125)
1 63492U 25052BN  25266.64438626  .00063013  00000-0  22500-2 0  9992
2 63492  97.4152 159.8990 0011181  19.3064 340.8597 15.28561245 29422
